Time,TemperatureF,DewpointF,PressureIn,WindDirection,WindDirectionDegrees,WindSpeedMPH,WindSpeedGustMPH,Humidity,HourlyPrecipIn,Conditions,Clouds,dailyrainin,SoftwareType,DateUTC
2013-04-20 00:00:00,40.3,33.0,30.12,SSW,202,0.0,0.0,75,0.00,,,0.00,VWS V14.01,2013-04-20 05:00:00,
2013-04-20 00:01:00,40.3,32.7,30.12,SSW,202,0.0,0.0,74,0.00,,,0.00,VWS V14.01,2013-04-20 05:01:00,
2013-04-20 00:06:00,40.1,33.2,30.12,SSW,202,0.0,0.0,76,0.00,,,0.00,VWS V14.01,2013-04-20 05:06:00,
2013-04-20 00:11:00,40.1,33.2,30.12,SSW,201,0.0,0.0,76,0.00,,,0.00,VWS V14.01,2013-04-20 05:11:00,
2013-04-20 00:16:00,40.0,33.4,30.12,SSW,201,0.0,0.0,77,0.00,,,0.00,VWS V14.01,2013-04-20 05:16:00,
2013-04-20 00:21:00,39.6,32.7,30.12,SSW,201,0.0,0.0,76,0.00,,,0.00,VWS V14.01,2013-04-20 05:21:00,
2013-04-20 00:26:00,39.3,32.7,30.12,SSW,201,0.0,0.0,77,0.00,,,0.00,VWS V14.01,2013-04-20 05:26:00,
2013-04-20 00:31:00,39.1,33.2,30.13,SSW,201,0.0,0.0,79,0.00,,,0.00,VWS V14.01,2013-04-20 05:31:00,
2013-04-20 00:36:00,38.7,32.8,30.13,SSW,202,0.0,0.0,79,0.00,,,0.00,VWS V14.01,2013-04-20 05:36:00,
2013-04-20 00:41:00,38.7,33.1,30.13,SSW,201,0.0,0.0,80,0.00,,,0.00,VWS V14.01,2013-04-20 05:41:00,
2013-04-20 00:46:00,38.6,33.6,30.13,SSW,201,0.0,0.0,82,0.00,,,0.00,VWS V14.01,2013-04-20 05:46:00,
2013-04-20 00:51:00,38.5,33.5,30.13,SSW,202,0.0,0.0,82,0.00,,,0.00,VWS V14.01,2013-04-20 05:51:00,
2013-04-20 00:56:00,38.2,33.5,30.13,SSW,202,0.0,0.0,83,0.00,,,0.00,VWS V14.01,2013-04-20 05:56:00,
2013-04-20 01:00:00,40.3,33.0,30.12,SSW,202,0.0,0.0,75,0.00,,,0.00,VWS V15.00,2013-04-20 06:00:00,
2013-04-20 01:01:00,38.0,32.7,30.13,SSW,202,0.0,0.0,81,0.00,,,0.00,VWS V14.01,2013-04-20 06:01:00,
2013-04-20 01:06:00,37.9,32.6,30.13,SSW,201,0.0,0.0,81,0.00,,,0.00,VWS V14.01,2013-04-20 06:06:00,
2013-04-20 01:11:00,37.9,32.9,30.13,SSW,201,0.0,0.0,82,0.00,,,0.00,VWS V14.01,2013-04-20 06:11:00,
2013-04-20 01:16:00,37.9,33.5,30.13,SSW,201,0.0,0.0,84,0.00,,,0.00,VWS V14.01,2013-04-20 06:16:00,
2013-04-20 01:21:00,37.9,33.5,30.13,SSW,202,0.0,0.0,84,0.00,,,0.00,VWS V14.01,2013-04-20 06:21:00,
2013-04-20 01:26:00,38.0,33.3,30.13,SSW,201,0.0,0.0,83,0.00,,,0.00,VWS V14.01,2013-04-20 06:26:00,
2013-04-20 01:31:00,37.9,33.2,30.13,SSW,201,0.0,0.0,83,0.00,,,0.00,VWS V14.01,2013-04-20 06:31:00,
2013-04-20 01:36:00,37.9,33.2,30.13,SSW,201,0.0,0.0,83,0.00,,,0.00,VWS V14.01,2013-04-20 06:36:00,
2013-04-20 01:41:00,37.9,33.2,30.13,SSW,201,0.0,0.0,83,0.00,,,0.00,VWS V14.01,2013-04-20 06:41:00,
2013-04-20 01:46:00,37.8,33.4,30.13,SSW,202,0.0,0.0,84,0.00,,,0.00,VWS V14.01,2013-04-20 06:46:00,
2013-04-20 01:51:00,37.7,33.3,30.13,SSW,201,0.0,0.0,84,0.00,,,0.00,VWS V14.01,2013-04-20 06:51:00,
2013-04-20 01:56:00,37.5,33.4,30.13,SSW,201,0.0,0.0,85,0.00,,,0.00,VWS V14.01,2013-04-20 06:56:00,
2013-04-20 02:00:00,37.2,33.1,30.13,SSW,201,0.0,0.0,85,0.00,,,0.00,VWS V14.01,2013-04-20 07:00:00,
2013-04-20 02:01:00,37.1,33.0,30.13,SSW,201,0.0,0.0,85,0.00,,,0.00,VWS V14.01,2013-04-20 07:01:00,
2013-04-20 02:06:00,37.0,33.2,30.13,SSW,201,0.0,0.0,86,0.00,,,0.00,VWS V14.01,2013-04-20 07:06:00,
2013-04-20 02:11:00,37.1,33.6,30.13,SSW,201,0.0,0.0,87,0.00,,,0.00,VWS V14.01,2013-04-20 07:11:00,
2013-04-20 02:16:00,37.2,33.4,30.13,SSW,201,0.0,0.0,86,0.00,,,0.00,VWS V14.01,2013-04-20 07:16:00,
2013-04-20 02:20:00,37.2,33.4,30.13,SSW,201,0.0,0.0,86,0.00,,,0.00,VWS V14.01,2013-04-20 07:20:00,
2013-04-20 02:25:00,37.1,33.3,30.13,SSW,201,0.0,0.0,86,0.00,,,0.00,VWS V14.01,2013-04-20 07:25:00,
2013-04-20 02:30:00,36.9,33.1,30.13,SSW,201,0.0,0.0,86,0.00,,,0.00,VWS V14.01,2013-04-20 07:30:00,
2013-04-20 02:35:00,36.8,33.0,30.13,SSW,201,0.0,0.0,86,0.00,,,0.00,VWS V14.01,2013-04-20 07:35:00,
2013-04-20 02:40:00,36.9,33.1,30.13,SSW,201,0.0,0.0,86,0.00,,,0.00,VWS V14.01,2013-04-20 07:40:00,
2013-04-20 02:45:00,37.1,33.6,30.13,SSW,201,0.0,0.0,87,0.00,,,0.00,VWS V14.01,2013-04-20 07:45:00,
2013-04-20 02:50:00,37.1,33.3,30.13,SSW,201,0.0,0.0,86,0.00,,,0.00,VWS V14.01,2013-04-20 07:50:00,
2013-04-20 02:55:00,37.0,33.2,30.13,SSW,201,0.0,0.0,86,0.00,,,0.00,VWS V14.01,2013-04-20 07:55:00,
2013-04-20 03:00:00,37.0,33.5,30.13,SSW,201,0.0,0.0,87,0.00,,,0.00,VWS V14.01,2013-04-20 08:00:00,
2013-04-20 03:05:00,36.9,33.4,30.12,SSW,202,0.0,0.0,87,0.00,,,0.00,VWS V14.01,2013-04-20 08:05:00,
2013-04-20 03:10:00,36.8,33.3,30.13,SSW,201,0.0,0.0,87,0.00,,,0.00,VWS V14.01,2013-04-20 08:10:00,
2013-04-20 03:15:00,36.9,33.1,30.13,SSW,201,0.0,0.0,86,0.00,,,0.00,VWS V14.01,2013-04-20 08:15:00,
2013-04-20 03:20:00,37.4,33.0,30.13,SSW,201,0.0,0.0,84,0.00,,,0.00,VWS V14.01,2013-04-20 08:20:00,
2013-04-20 03:25:00,37.5,32.8,30.13,SSW,202,0.0,0.0,83,0.00,,,0.00,VWS V14.01,2013-04-20 08:25:00,
2013-04-20 03:30:00,37.3,32.9,30.13,SSW,201,0.0,0.0,84,0.00,,,0.00,VWS V14.01,2013-04-20 08:30:00,
2013-04-20 03:35:00,36.9,32.5,30.13,SSW,201,0.0,0.0,84,0.00,,,0.00,VWS V14.01,2013-04-20 08:35:00,
2013-04-20 03:40:00,36.9,32.5,30.13,SSW,201,0.0,0.0,84,0.00,,,0.00,VWS V14.01,2013-04-20 08:40:00,
2013-04-20 03:45:00,37.1,32.7,30.13,SSW,202,0.0,0.0,84,0.00,,,0.00,VWS V14.01,2013-04-20 08:45:00,
2013-04-20 03:50:00,36.9,32.5,30.13,SSW,201,0.0,0.0,84,0.00,,,0.00,VWS V14.01,2013-04-20 08:50:00,
2013-04-20 03:55:00,37.1,33.3,30.13,SSW,201,0.0,0.0,86,0.00,,,0.00,VWS V14.01,2013-04-20 08:55:00,
2013-04-20 04:00:00,37.2,33.1,30.13,SSW,201,0.0,0.0,85,0.00,,,0.00,VWS V14.01,2013-04-20 09:00:00,
2013-04-20 04:05:00,36.9,32.5,30.14,SSW,202,0.0,0.0,84,0.00,,,0.00,VWS V14.01,2013-04-20 09:05:00,
2013-04-20 04:10:00,37.0,33.2,30.14,SSW,202,0.0,0.0,86,0.00,,,0.00,VWS V14.01,2013-04-20 09:10:00,
2013-04-20 04:15:00,36.9,33.1,30.14,SSW,201,0.0,0.0,86,0.00,,,0.00,VWS V14.01,2013-04-20 09:15:00,
2013-04-20 04:20:00,36.8,32.7,30.14,SSW,201,0.0,0.0,85,0.00,,,0.00,VWS V14.01,2013-04-20 09:20:00,
2013-04-20 04:25:00,36.8,33.0,30.14,SSW,201,0.0,0.0,86,0.00,,,0.00,VWS V14.01,2013-04-20 09:25:00,
2013-04-20 04:30:00,36.9,33.4,30.14,SSW,201,0.0,0.0,87,0.00,,,0.00,VWS V14.01,2013-04-20 09:30:00,
2013-04-20 04:35:00,37.0,32.9,30.14,SSW,202,0.0,0.0,85,0.00,,,0.00,VWS V14.01,2013-04-20 09:35:00,
2013-04-20 04:40:00,36.9,32.8,30.14,SSW,201,0.0,0.0,85,0.00,,,0.00,VWS V14.01,2013-04-20 09:40:00,
2013-04-20 04:45:00,36.9,32.8,30.14,SSW,201,0.0,0.0,85,0.00,,,0.00,VWS V14.01,2013-04-20 09:45:00,
2013-04-20 04:50:00,37.1,32.7,30.14,SSW,201,0.0,0.0,84,0.00,,,0.00,VWS V14.01,2013-04-20 09:50:00,
2013-04-20 04:55:00,37.2,32.5,30.14,SSW,201,0.0,0.0,83,0.00,,,0.00,VWS V14.01,2013-04-20 09:55:00,
2013-04-20 05:00:00,37.4,32.7,30.15,SSW,201,0.0,0.0,83,0.00,,,0.00,VWS V14.01,2013-04-20 10:00:00,
2013-04-20 05:05:00,37.7,33.0,30.15,SSW,201,0.0,0.0,83,0.00,,,0.00,VWS V14.01,2013-04-20 10:05:00,
2013-04-20 05:10:00,37.5,33.1,30.15,SSW,201,0.0,0.0,84,0.00,,,0.00,VWS V14.01,2013-04-20 10:10:00,
2013-04-20 05:15:00,37.2,32.5,30.15,SSW,201,0.0,0.0,83,0.00,,,0.00,VWS V14.01,2013-04-20 10:15:00,
2013-04-20 05:20:00,37.0,33.2,30.15,SSW,201,0.0,0.0,86,0.00,,,0.00,VWS V14.01,2013-04-20 10:20:00,
2013-04-20 05:25:00,37.2,32.8,30.15,SSW,201,0.0,0.0,84,0.00,,,0.00,VWS V14.01,2013-04-20 10:25:00,
2013-04-20 05:30:00,37.6,33.2,30.15,SSW,201,0.0,0.0,84,0.00,,,0.00,VWS V14.01,2013-04-20 10:30:00,
2013-04-20 05:35:00,37.5,33.1,30.15,SSW,201,0.0,0.0,84,0.00,,,0.00,VWS V14.01,2013-04-20 10:35:00,
2013-04-20 05:40:00,37.5,33.1,30.15,SSW,201,0.0,0.0,84,0.00,,,0.00,VWS V14.01,2013-04-20 10:40:00,
2013-04-20 05:45:00,37.2,33.1,30.15,SSW,201,0.0,0.0,85,0.00,,,0.00,VWS V14.01,2013-04-20 10:45:00,
2013-04-20 05:50:00,37.1,33.0,30.16,SSW,201,0.0,0.0,85,0.00,,,0.00,VWS V14.01,2013-04-20 10:50:00,
2013-04-20 05:55:00,36.9,33.1,30.16,SSW,201,0.0,0.0,86,0.00,,,0.00,VWS V14.01,2013-04-20 10:55:00,
2013-04-20 06:00:00,36.8,33.0,30.16,SSW,202,0.0,0.0,86,0.00,,,0.00,VWS V14.01,2013-04-20 11:00:00,
2013-04-20 06:05:00,36.6,33.1,30.16,SSW,202,0.0,0.0,87,0.00,,,0.00,VWS V14.01,2013-04-20 11:05:00,
2013-04-20 06:10:00,36.5,33.0,30.16,SSW,201,0.0,0.0,87,0.00,,,0.00,VWS V14.01,2013-04-20 11:10:00,
2013-04-20 06:15:00,36.3,32.8,30.16,SSW,201,0.0,0.0,87,0.00,,,0.00,VWS V14.01,2013-04-20 11:15:00,
2013-04-20 06:20:00,36.2,33.0,30.16,SSW,201,0.0,0.0,88,0.00,,,0.00,VWS V14.01,2013-04-20 11:20:00,
2013-04-20 06:25:00,36.2,33.0,30.16,SSW,201,0.0,0.0,88,0.00,,,0.00,VWS V14.01,2013-04-20 11:25:00,
2013-04-20 06:30:00,36.1,32.9,30.16,SSW,201,0.0,0.0,88,0.00,,,0.00,VWS V14.01,2013-04-20 11:30:00,
2013-04-20 06:35:00,36.1,32.9,30.16,SSW,201,0.0,0.0,88,0.00,,,0.00,VWS V14.01,2013-04-20 11:35:00,
2013-04-20 06:40:00,36.0,32.8,30.16,SSW,202,0.0,0.0,88,0.00,,,0.00,VWS V14.01,2013-04-20 11:40:00,
2013-04-20 06:45:00,36.1,32.9,30.16,SSW,201,0.0,0.0,88,0.00,,,0.00,VWS V14.01,2013-04-20 11:45:00,
2013-04-20 06:50:00,36.5,33.0,30.16,SSW,202,0.0,0.0,87,0.00,,,0.00,VWS V14.01,2013-04-20 11:50:00,
2013-04-20 06:55:00,37.1,33.6,30.16,SSW,201,0.0,0.0,87,0.00,,,0.00,VWS V14.01,2013-04-20 11:55:00,
2013-04-20 07:00:00,37.6,33.5,30.17,SSW,202,0.0,0.0,85,0.00,,,0.00,VWS V14.01,2013-04-20 12:00:00,
2013-04-20 07:05:00,38.2,34.1,30.17,SSW,201,0.0,0.0,85,0.00,,,0.00,VWS V14.01,2013-04-20 12:05:00,
2013-04-20 07:10:00,38.7,34.3,30.17,SSW,201,0.0,0.0,84,0.00,,,0.00,VWS V14.01,2013-04-20 12:10:00,
2013-04-20 07:15:00,39.5,34.8,30.17,SSW,201,0.0,0.0,83,0.00,,,0.00,VWS V14.01,2013-04-20 12:15:00,
2013-04-20 07:20:00,40.0,35.0,30.17,SSW,201,0.0,0.0,82,0.00,,,0.00,VWS V14.01,2013-04-20 12:20:00,
2013-04-20 07:25:00,40.4,35.0,30.17,SSW,201,0.0,0.0,81,0.00,,,0.00,VWS V14.01,2013-04-20 12:25:00,
2013-04-20 07:30:00,40.9,35.2,30.18,SSW,202,0.0,0.0,80,0.00,,,0.00,VWS V14.01,2013-04-20 12:30:00,
2013-04-20 07:35:00,41.6,35.9,30.18,SSW,201,0.0,0.0,80,0.00,,,0.00,VWS V14.01,2013-04-20 12:35:00,
2013-04-20 07:40:00,42.1,36.1,30.18,ESE,117,0.0,1.0,79,0.00,,,0.00,VWS V14.01,2013-04-20 12:40:00,
2013-04-20 07:45:00,42.4,36.4,30.18,ESE,117,0.0,1.0,79,0.00,,,0.00,VWS V14.01,2013-04-20 12:45:00,
2013-04-20 07:54:00,43.3,36.9,30.19,ESE,120,0.0,0.0,78,0.00,,,0.00,VWS V14.01,2013-04-20 12:54:00,
2013-04-20 07:59:00,43.9,36.8,30.18,ESE,120,0.0,0.0,76,0.00,,,0.00,VWS V14.01,2013-04-20 12:59:00,
2013-04-20 08:00:00,44.0,36.9,30.18,ESE,120,0.0,0.0,76,0.00,,,0.00,VWS V14.01,2013-04-20 13:00:00,
2013-04-20 08:04:00,44.7,37.9,30.19,ESE,120,0.0,0.0,77,0.00,,,0.00,VWS V14.01,2013-04-20 13:04:00,
2013-04-20 08:09:00,45.3,38.2,30.19,ESE,120,0.0,0.0,76,0.00,,,0.00,VWS V14.01,2013-04-20 13:09:00,
2013-04-20 08:14:00,46.0,37.8,30.19,SSE,167,0.0,1.0,73,0.00,,,0.00,VWS V14.01,2013-04-20 13:14:00,
2013-04-20 08:19:00,46.5,37.3,30.19,South,191,0.0,1.0,70,0.00,,,0.00,VWS V14.01,2013-04-20 13:19:00,
2013-04-20 08:24:00,46.9,36.9,30.20,SSE,168,0.0,2.0,68,0.00,,,0.00,VWS V14.01,2013-04-20 13:24:00,
2013-04-20 08:29:00,47.3,37.3,30.20,South,186,0.0,2.0,68,0.00,,,0.00,VWS V14.01,2013-04-20 13:29:00,
2013-04-20 08:34:00,47.8,37.4,30.20,SSE,153,1.5,2.0,67,0.00,,,0.00,VWS V14.01,2013-04-20 13:34:00,
2013-04-20 08:39:00,48.3,37.5,30.20,South,184,0.0,2.0,66,0.00,,,0.00,VWS V14.01,2013-04-20 13:39:00,
2013-04-20 08:44:00,48.7,37.1,30.20,SSE,160,0.0,2.0,64,0.00,,,0.00,VWS V14.01,2013-04-20 13:44:00,
2013-04-20 08:49:00,49.2,37.6,30.20,SSE,165,1.5,2.0,64,0.00,,,0.00,VWS V14.01,2013-04-20 13:49:00,
2013-04-20 08:54:00,49.7,37.6,30.21,SSW,212,0.0,2.0,63,0.00,,,0.00,VWS V14.01,2013-04-20 13:54:00,
2013-04-20 08:59:00,50.3,38.2,30.21,SSE,164,3.0,3.0,63,0.00,,,0.00,VWS V14.01,2013-04-20 13:59:00,
2013-04-20 09:00:00,44.0,36.9,30.18,ESE,120,0.0,0.0,76,0.00,,,0.00,VWS V15.00,2013-04-20 14:00:00,
2013-04-20 09:04:00,51.1,38.5,30.21,SSW,198,0.0,2.0,62,0.00,,,0.00,VWS V14.01,2013-04-20 14:04:00,
2013-04-20 09:09:00,51.8,37.9,30.21,SSW,197,1.5,3.0,59,0.00,,,0.00,VWS V14.01,2013-04-20 14:09:00,
2013-04-20 09:14:00,52.6,37.4,30.21,South,169,1.5,4.0,56,0.00,,,0.00,VWS V14.01,2013-04-20 14:14:00,
2013-04-20 09:19:00,53.2,37.0,30.21,South,180,3.0,5.0,54,0.00,,,0.00,VWS V14.01,2013-04-20 14:19:00,
2013-04-20 09:24:00,54.1,36.4,30.21,SSW,205,3.0,5.0,51,0.00,,,0.00,VWS V14.01,2013-04-20 14:24:00,
2013-04-20 09:29:00,54.6,37.3,30.21,SSW,194,3.0,5.0,52,0.00,,,0.00,VWS V14.01,2013-04-20 14:29:00,
2013-04-20 09:34:00,55.4,37.6,30.21,SSW,207,0.0,1.0,51,0.00,,,0.00,VWS V14.01,2013-04-20 14:34:00,
2013-04-20 09:39:00,56.0,36.6,30.21,SSE,160,3.0,3.0,48,0.00,,,0.00,VWS V14.01,2013-04-20 14:39:00,
2013-04-20 09:44:00,56.3,37.4,30.21,SSW,207,0.0,5.0,49,0.00,,,0.00,VWS V14.01,2013-04-20 14:44:00,
2013-04-20 09:49:00,56.8,36.8,30.21,SSW,207,3.0,5.0,47,0.00,,,0.00,VWS V14.01,2013-04-20 14:49:00,
2013-04-20 09:54:00,56.7,35.6,30.21,SW,222,1.5,5.0,45,0.00,,,0.00,VWS V14.01,2013-04-20 14:54:00,
2013-04-20 09:59:00,57.0,36.4,30.21,SSW,196,3.0,5.0,46,0.00,,,0.00,VWS V14.01,2013-04-20 14:59:00,
2013-04-20 10:00:00,57.1,34.8,30.21,SSW,208,0.0,5.0,43,0.00,,,0.00,VWS V14.01,2013-04-20 15:00:00,
2013-04-20 10:04:00,57.3,34.4,30.22,West,267,3.0,3.0,42,0.00,,,0.00,VWS V14.01,2013-04-20 15:04:00,
2013-04-20 10:09:00,57.2,35.5,30.22,West,271,0.0,0.0,44,0.00,,,0.00,VWS V14.01,2013-04-20 15:09:00,
2013-04-20 10:19:00,58.3,36.5,30.22,SW,233,0.0,0.0,44,0.00,,,0.00,VWS V14.01,2013-04-20 15:19:00,
2013-04-20 10:24:00,58.4,35.4,30.23,SSW,204,1.5,7.0,42,0.00,,,0.00,VWS V14.01,2013-04-20 15:24:00,
2013-04-20 10:29:00,58.4,35.4,30.23,SSW,200,0.0,7.0,42,0.00,,,0.00,VWS V14.01,2013-04-20 15:29:00,
2013-04-20 10:34:00,59.0,36.6,30.22,South,181,6.0,7.0,43,0.00,,,0.00,VWS V14.01,2013-04-20 15:34:00,
2013-04-20 10:39:00,59.2,36.1,30.23,West,266,0.0,7.0,42,0.00,,,0.00,VWS V14.01,2013-04-20 15:39:00,
2013-04-20 10:44:00,59.4,35.7,30.23,SSE,159,7.5,8.0,41,0.00,,,0.00,VWS V14.01,2013-04-20 15:44:00,
2013-04-20 10:49:00,59.2,34.9,30.23,South,179,6.0,8.0,40,0.00,,,0.00,VWS V14.01,2013-04-20 15:49:00,
2013-04-20 10:54:00,59.2,36.7,30.23,SW,221,4.5,8.0,43,0.00,,,0.00,VWS V14.01,2013-04-20 15:54:00,
2013-04-20 10:59:00,59.7,37.2,30.22,WSW,238,3.0,8.0,43,0.00,,,0.00,VWS V14.01,2013-04-20 15:59:00,
2013-04-20 11:00:00,57.1,34.8,30.21,SSW,208,0.0,5.0,43,0.00,,,0.00,VWS V15.00,2013-04-20 16:00:00,
2013-04-20 11:04:00,60.2,36.4,30.22,West,263,0.0,8.0,41,0.00,,,0.00,VWS V14.01,2013-04-20 16:04:00,
2013-04-20 11:09:00,60.6,35.5,30.22,West,280,1.5,8.0,39,0.00,,,0.00,VWS V14.01,2013-04-20 16:09:00,
2013-04-20 11:14:00,61.0,37.2,30.22,SSE,158,1.5,8.0,41,0.00,,,0.00,VWS V14.01,2013-04-20 16:14:00,
2013-04-20 11:19:00,61.2,36.1,30.22,SSW,194,7.5,8.0,39,0.00,,,0.00,VWS V14.01,2013-04-20 16:19:00,
2013-04-20 11:24:00,61.6,36.4,30.22,South,172,4.5,8.0,39,0.00,,,0.00,VWS V14.01,2013-04-20 16:24:00,
2013-04-20 11:29:00,62.1,37.5,30.22,SSW,193,1.5,8.0,40,0.00,,,0.00,VWS V14.01,2013-04-20 16:29:00,
2013-04-20 11:34:00,62.0,35.5,30.22,SW,226,4.5,9.0,37,0.00,,,0.00,VWS V14.01,2013-04-20 16:34:00,
2013-04-20 11:39:00,61.9,35.4,30.21,SSW,200,3.0,9.0,37,0.00,,,0.00,VWS V14.01,2013-04-20 16:39:00,
2013-04-20 11:44:00,62.1,35.5,30.21,WNW,284,3.0,9.0,37,0.00,,,0.00,VWS V14.01,2013-04-20 16:44:00,
2013-04-20 11:49:00,62.4,36.5,30.21,SW,225,4.5,9.0,38,0.00,,,0.00,VWS V14.01,2013-04-20 16:49:00,
2013-04-20 11:54:00,63.0,36.3,30.21,SSW,200,3.0,9.0,37,0.00,,,0.00,VWS V14.01,2013-04-20 16:54:00,
2013-04-20 11:59:00,63.3,36.6,30.21,SSW,200,4.5,9.0,37,0.00,,,0.00,VWS V14.01,2013-04-20 16:59:00,
2013-04-20 12:00:00,63.3,35.9,30.21,West,263,1.5,9.0,36,0.00,,,0.00,VWS V14.01,2013-04-20 17:00:00,
2013-04-20 12:04:00,63.4,35.3,30.21,SW,224,1.5,4.0,35,0.00,,,0.00,VWS V14.01,2013-04-20 17:04:00,
2013-04-20 12:09:00,63.7,37.0,30.20,SSW,193,6.0,6.0,37,0.00,,,0.00,VWS V14.01,2013-04-20 17:09:00,
2013-04-20 12:14:00,63.8,36.4,30.20,West,264,3.0,6.0,36,0.00,,,0.00,VWS V14.01,2013-04-20 17:14:00,
2013-04-20 12:19:00,63.6,36.2,30.20,SW,224,3.0,6.0,36,0.00,,,0.00,VWS V14.01,2013-04-20 17:19:00,
2013-04-20 12:24:00,63.9,37.1,30.20,WSW,239,1.5,6.0,37,0.00,,,0.00,VWS V14.01,2013-04-20 17:24:00,
2013-04-20 12:29:00,64.5,37.0,30.20,West,275,1.5,6.0,36,0.00,,,0.00,VWS V14.01,2013-04-20 17:29:00,
2013-04-20 12:34:00,64.7,38.5,30.20,SW,220,6.0,6.0,38,0.00,,,0.00,VWS V14.01,2013-04-20 17:34:00,
2013-04-20 12:39:00,64.6,36.3,30.19,SSW,200,6.0,8.0,35,0.00,,,0.00,VWS V14.01,2013-04-20 17:39:00,
2013-04-20 12:44:00,64.0,36.5,30.19,ENE,70,4.5,8.0,36,0.00,,,0.00,VWS V14.01,2013-04-20 17:44:00,
2013-04-20 12:49:00,64.0,37.2,30.19,SSW,197,9.0,9.0,37,0.00,,,0.00,VWS V14.01,2013-04-20 17:49:00,
2013-04-20 12:54:00,64.1,36.6,30.19,SW,215,1.5,8.0,36,0.00,,,0.00,VWS V14.01,2013-04-20 17:54:00,
2013-04-20 12:59:00,64.1,38.0,30.19,SSE,168,4.5,8.0,38,0.00,,,0.00,VWS V14.01,2013-04-20 17:59:00,
2013-04-20 13:00:00,63.3,35.9,30.21,West,263,1.5,9.0,36,0.00,,,0.00,VWS V15.00,2013-04-20 18:00:00,
2013-04-20 13:04:00,64.7,36.4,30.18,SSW,198,1.5,8.0,35,0.00,,,0.00,VWS V14.01,2013-04-20 18:04:00,
2013-04-20 13:09:00,64.9,37.3,30.18,SSW,208,1.5,8.0,36,0.00,,,0.00,VWS V14.01,2013-04-20 18:09:00,
2013-04-20 13:14:00,64.7,35.7,30.18,SW,224,1.5,9.0,34,0.00,,,0.00,VWS V14.01,2013-04-20 18:14:00,
2013-04-20 13:19:00,64.5,35.5,30.18,South,189,4.5,9.0,34,0.00,,,0.00,VWS V14.01,2013-04-20 18:19:00,
2013-04-20 13:24:00,64.5,35.5,30.18,SSW,200,6.0,9.0,34,0.00,,,0.00,VWS V14.01,2013-04-20 18:24:00,
2013-04-20 13:29:00,64.9,38.0,30.18,SSW,212,1.5,9.0,37,0.00,,,0.00,VWS V14.01,2013-04-20 18:29:00,
2013-04-20 13:34:00,65.3,36.2,30.18,SSW,200,6.0,9.0,34,0.00,,,0.00,VWS V14.01,2013-04-20 18:34:00,
2013-04-20 13:39:00,65.3,36.2,30.18,WSW,242,6.0,9.0,34,0.00,,,0.00,VWS V14.01,2013-04-20 18:39:00,
2013-04-20 13:44:00,65.4,35.6,30.18,SSW,197,6.0,9.0,33,0.00,,,0.00,VWS V14.01,2013-04-20 18:44:00,
2013-04-20 13:49:00,65.6,38.7,30.17,WSW,242,1.5,9.0,37,0.00,,,0.00,VWS V14.01,2013-04-20 18:49:00,
2013-04-20 13:54:00,66.0,35.3,30.17,SSW,207,1.5,9.0,32,0.00,,,0.00,VWS V14.01,2013-04-20 18:54:00,
2013-04-20 13:59:00,66.1,36.2,30.17,SSW,204,4.5,9.0,33,0.00,,,0.00,VWS V14.01,2013-04-20 18:59:00,
2013-04-20 14:00:00,66.0,35.3,30.17,South,169,10.5,10.5,32,0.00,,,0.00,VWS V14.01,2013-04-20 19:00:00,
2013-04-20 14:04:00,65.8,36.7,30.17,SW,231,1.5,7.0,34,0.00,,,0.00,VWS V14.01,2013-04-20 19:04:00,
2013-04-20 14:09:00,65.8,36.7,30.17,South,172,0.0,7.0,34,0.00,,,0.00,VWS V14.01,2013-04-20 19:09:00,
2013-04-20 14:14:00,66.4,36.5,30.16,SW,225,3.0,7.0,33,0.00,,,0.00,VWS V14.01,2013-04-20 19:14:00,
2013-04-20 14:19:00,66.7,35.9,30.17,South,186,4.5,8.0,32,0.00,,,0.00,VWS V14.01,2013-04-20 19:19:00,
2013-04-20 14:24:00,66.7,35.9,30.16,SE,146,1.5,8.0,32,0.00,,,0.00,VWS V14.01,2013-04-20 19:24:00,
2013-04-20 14:29:00,67.7,37.6,30.16,South,170,1.5,8.0,33,0.00,,,0.00,VWS V14.01,2013-04-20 19:29:00,
2013-04-20 14:34:00,68.4,35.8,30.16,SW,224,3.0,8.0,30,0.00,,,0.00,VWS V14.01,2013-04-20 19:34:00,
2013-04-20 14:47:00,68.3,36.5,30.15,WSW,242,0.0,0.0,31,0.00,,,0.00,VWS V14.01,2013-04-20 19:47:00,
2013-04-20 14:52:00,68.2,37.2,30.15,West,264,1.5,4.0,32,0.00,,,0.00,VWS V14.01,2013-04-20 19:52:00,
2013-04-20 14:57:00,68.5,35.9,30.15,SW,226,1.5,6.0,30,0.00,,,0.00,VWS V14.01,2013-04-20 19:57:00,
2013-04-20 15:00:00,66.0,35.3,30.17,South,169,10.5,10.5,32,0.00,,,0.00,VWS V15.00,2013-04-20 20:00:00,
2013-04-20 15:02:00,68.4,36.6,30.15,SSW,202,1.5,6.0,31,0.00,,,0.00,VWS V14.01,2013-04-20 20:02:00,
2013-04-20 15:07:00,69.0,35.5,30.15,SSE,165,4.5,6.0,29,0.00,,,0.00,VWS V14.01,2013-04-20 20:07:00,
2013-04-20 15:12:00,68.8,33.5,30.15,SW,222,3.0,8.0,27,0.00,,,0.00,VWS V14.01,2013-04-20 20:12:00,
2013-04-20 15:17:00,69.1,33.7,30.14,SW,221,0.0,8.0,27,0.00,,,0.00,VWS V14.01,2013-04-20 20:17:00,
2013-04-20 15:22:00,69.2,33.8,30.14,East,101,1.5,8.0,27,0.00,,,0.00,VWS V14.01,2013-04-20 20:22:00,
2013-04-20 15:27:00,69.1,34.7,30.14,SSW,204,0.0,8.0,28,0.00,,,0.00,VWS V14.01,2013-04-20 20:27:00,
2013-04-20 15:32:00,68.8,34.4,30.14,South,177,1.5,8.0,28,0.00,,,0.00,VWS V14.01,2013-04-20 20:32:00,
2013-04-20 15:37:00,68.4,32.2,30.14,South,182,6.0,8.0,26,0.00,,,0.00,VWS V14.01,2013-04-20 20:37:00,
2013-04-20 15:42:00,68.0,32.8,30.13,SSW,202,3.0,8.0,27,0.00,,,0.00,VWS V14.01,2013-04-20 20:42:00,
2013-04-20 15:47:00,68.0,33.7,30.13,SW,224,7.5,8.0,28,0.00,,,0.00,VWS V14.01,2013-04-20 20:47:00,
2013-04-20 15:52:00,67.5,33.3,30.13,SSW,210,3.0,8.0,28,0.00,,,0.00,VWS V14.01,2013-04-20 20:52:00,
2013-04-20 15:57:00,67.1,32.9,30.13,SW,219,1.5,8.0,28,0.00,,,0.00,VWS V14.01,2013-04-20 20:57:00,
2013-04-20 16:00:00,66.8,31.8,30.13,SSW,197,1.5,8.0,27,0.00,,,0.00,VWS V14.01,2013-04-20 21:00:00,
2013-04-20 16:02:00,66.7,32.6,30.13,SE,145,0.0,1.0,28,0.00,,,0.00,VWS V14.01,2013-04-20 21:02:00,
2013-04-20 16:07:00,66.9,32.8,30.13,SSW,211,3.0,3.0,28,0.00,,,0.00,VWS V14.01,2013-04-20 21:07:00,
2013-04-20 16:12:00,67.4,34.9,30.12,SSW,197,3.0,4.0,30,0.00,,,0.00,VWS V14.01,2013-04-20 21:12:00,
2013-04-20 16:17:00,67.6,32.5,30.12,SSE,166,0.0,5.0,27,0.00,,,0.00,VWS V14.01,2013-04-20 21:17:00,
2013-04-20 16:22:00,67.8,33.5,30.12,SSE,167,0.0,5.0,28,0.00,,,0.00,VWS V14.01,2013-04-20 21:22:00,
2013-04-20 16:27:00,67.6,33.4,30.12,SSE,153,3.0,5.0,28,0.00,,,0.00,VWS V14.01,2013-04-20 21:27:00,
2013-04-20 16:32:00,67.6,33.4,30.12,SSW,204,1.5,5.0,28,0.00,,,0.00,VWS V14.01,2013-04-20 21:32:00,
2013-04-20 16:37:00,67.3,33.1,30.12,South,174,3.0,5.0,28,0.00,,,0.00,VWS V14.01,2013-04-20 21:37:00,
2013-04-20 16:42:00,66.9,32.8,30.12,South,180,1.5,5.0,28,0.00,,,0.00,VWS V14.01,2013-04-20 21:42:00,
2013-04-20 16:47:00,66.7,34.3,30.12,South,183,3.0,5.0,30,0.00,,,0.00,VWS V14.01,2013-04-20 21:47:00,
2013-04-20 16:52:00,66.5,35.8,30.12,SSW,203,7.5,7.5,32,0.00,,,0.00,VWS V14.01,2013-04-20 21:52:00,
2013-04-20 16:57:00,66.2,36.3,30.12,SSW,201,6.0,6.0,33,0.00,,,0.00,VWS V14.01,2013-04-20 21:57:00,
2013-04-20 17:00:00,66.8,31.8,30.13,SSW,197,1.5,8.0,27,0.00,,,0.00,VWS V15.00,2013-04-20 22:00:00,
2013-04-20 17:02:00,66.0,36.1,30.12,SSW,203,4.5,9.0,33,0.00,,,0.00,VWS V14.01,2013-04-20 22:02:00,
2013-04-20 17:07:00,65.7,35.8,30.12,SSW,211,1.5,9.0,33,0.00,,,0.00,VWS V14.01,2013-04-20 22:07:00,
2013-04-20 17:12:00,65.4,36.3,30.12,SSE,160,3.0,9.0,34,0.00,,,0.00,VWS V14.01,2013-04-20 22:12:00,
2013-04-20 17:17:00,65.2,35.4,30.11,SSE,155,6.0,9.0,33,0.00,,,0.00,VWS V14.01,2013-04-20 22:17:00,
2013-04-20 17:22:00,65.1,35.3,30.11,SE,144,1.5,9.0,33,0.00,,,0.00,VWS V14.01,2013-04-20 22:22:00,
2013-04-20 17:27:00,65.1,36.1,30.11,SSE,165,1.5,9.0,34,0.00,,,0.00,VWS V14.01,2013-04-20 22:27:00,
2013-04-20 17:32:00,65.1,35.3,30.11,SSE,167,6.0,9.0,33,0.00,,,0.00,VWS V14.01,2013-04-20 22:32:00,
2013-04-20 17:37:00,65.2,36.2,30.11,South,179,6.0,9.0,34,0.00,,,0.00,VWS V14.01,2013-04-20 22:37:00,
2013-04-20 17:42:00,65.2,36.2,30.11,South,172,0.0,9.0,34,0.00,,,0.00,VWS V14.01,2013-04-20 22:42:00,
2013-04-20 17:47:00,65.2,34.6,30.11,SSE,160,4.5,9.0,32,0.00,,,0.00,VWS V14.01,2013-04-20 22:47:00,
2013-04-20 17:52:00,65.3,34.7,30.11,SSW,208,4.5,9.0,32,0.00,,,0.00,VWS V14.01,2013-04-20 22:52:00,
2013-04-20 17:57:00,65.2,35.4,30.11,South,183,1.5,9.0,33,0.00,,,0.00,VWS V14.01,2013-04-20 22:57:00,
2013-04-20 18:00:00,65.3,34.7,30.11,SSW,204,6.0,9.0,32,0.00,,,0.00,VWS V14.01,2013-04-20 23:00:00,
2013-04-20 18:02:00,65.4,34.8,30.11,SSE,155,7.5,7.5,32,0.00,,,0.00,VWS V14.01,2013-04-20 23:02:00,
2013-04-20 18:07:00,65.4,35.6,30.11,SSW,207,3.0,7.0,33,0.00,,,0.00,VWS V14.01,2013-04-20 23:07:00,
2013-04-20 18:12:00,65.4,36.3,30.11,SE,132,3.0,7.0,34,0.00,,,0.00,VWS V14.01,2013-04-20 23:12:00,
2013-04-20 18:17:00,65.5,35.7,30.11,South,185,3.0,7.0,33,0.00,,,0.00,VWS V14.01,2013-04-20 23:17:00,
2013-04-20 18:22:00,65.7,35.1,30.11,SSW,193,0.0,7.0,32,0.00,,,0.00,VWS V14.01,2013-04-20 23:22:00,
2013-04-20 18:27:00,65.8,35.9,30.11,South,173,7.5,7.5,33,0.00,,,0.00,VWS V14.01,2013-04-20 23:27:00,
2013-04-20 18:32:00,65.9,34.4,30.11,SE,136,4.5,7.0,31,0.00,,,0.00,VWS V14.01,2013-04-20 23:32:00,
2013-04-20 18:37:00,65.8,35.2,30.11,ESE,115,4.5,8.0,32,0.00,,,0.00,VWS V14.01,2013-04-20 23:37:00,
2013-04-20 18:42:00,65.6,34.2,30.11,East,98,1.5,8.0,31,0.00,,,0.00,VWS V14.01,2013-04-20 23:42:00,
2013-04-20 18:47:00,65.4,34.8,30.11,SSW,195,7.5,8.0,32,0.00,,,0.00,VWS V14.01,2013-04-20 23:47:00,
2013-04-20 18:52:00,65.1,34.5,30.11,SSE,149,10.5,10.5,32,0.00,,,0.00,VWS V14.01,2013-04-20 23:52:00,
2013-04-20 18:57:00,64.8,34.3,30.12,SSE,155,9.0,9.0,32,0.00,,,0.00,VWS V14.01,2013-04-20 23:57:00,
2013-04-20 19:00:00,65.3,34.7,30.11,SSW,204,6.0,9.0,32,0.00,,,0.00,VWS V15.00,2013-04-21 00:00:00,
2013-04-20 19:02:00,64.6,34.9,30.12,South,169,1.5,9.0,33,0.00,,,0.00,VWS V14.01,2013-04-21 00:02:00,
2013-04-20 19:07:00,64.4,34.7,30.12,SSE,168,0.0,9.0,33,0.00,,,0.00,VWS V14.01,2013-04-21 00:07:00,
2013-04-20 19:12:00,64.2,36.7,30.12,East,97,1.5,9.0,36,0.00,,,0.00,VWS V14.01,2013-04-21 00:12:00,
2013-04-20 19:17:00,64.0,35.1,30.12,SSE,163,4.5,9.0,34,0.00,,,0.00,VWS V14.01,2013-04-21 00:17:00,
2013-04-20 19:22:00,63.9,35.7,30.12,South,170,0.0,9.0,35,0.00,,,0.00,VWS V14.01,2013-04-21 00:22:00,
2013-04-20 19:27:00,63.7,35.6,30.12,SSE,149,0.0,9.0,35,0.00,,,0.00,VWS V14.01,2013-04-21 00:27:00,
2013-04-20 19:32:00,63.5,35.4,30.12,SSW,207,3.0,9.0,35,0.00,,,0.00,VWS V14.01,2013-04-21 00:32:00,
2013-04-20 19:37:00,63.3,35.9,30.12,SSE,164,1.5,9.0,36,0.00,,,0.00,VWS V14.01,2013-04-21 00:37:00,
2013-04-20 19:42:00,63.1,35.7,30.12,SE,143,0.0,9.0,36,0.00,,,0.00,VWS V14.01,2013-04-21 00:42:00,
2013-04-20 19:47:00,62.8,36.8,30.12,SE,139,0.0,9.0,38,0.00,,,0.00,VWS V14.01,2013-04-21 00:47:00,
2013-04-20 19:52:00,62.5,35.9,30.13,South,190,0.0,9.0,37,0.00,,,0.00,VWS V14.01,2013-04-21 00:52:00,
2013-04-20 19:57:00,62.2,36.3,30.13,SSE,150,1.5,9.0,38,0.00,,,0.00,VWS V14.01,2013-04-21 00:57:00,
2013-04-20 20:00:00,62.2,36.3,30.13,South,183,3.0,9.0,38,0.00,,,0.00,VWS V14.01,2013-04-21 01:00:00,
2013-04-20 20:02:00,62.1,36.2,30.13,SE,143,1.5,2.0,38,0.00,,,0.00,VWS V14.01,2013-04-21 01:02:00,
2013-04-20 20:07:00,61.9,36.7,30.13,SE,131,1.5,2.0,39,0.00,,,0.00,VWS V14.01,2013-04-21 01:07:00,
2013-04-20 20:12:00,61.7,37.2,30.13,SE,126,1.5,2.0,40,0.00,,,0.00,VWS V14.01,2013-04-21 01:12:00,
2013-04-20 20:17:00,61.6,37.1,30.13,SSE,153,0.0,3.0,40,0.00,,,0.00,VWS V14.01,2013-04-21 01:17:00,
2013-04-20 20:22:00,61.4,37.5,30.14,South,177,3.0,3.0,41,0.00,,,0.00,VWS V14.01,2013-04-21 01:22:00,
2013-04-20 20:27:00,61.4,37.5,30.14,SSE,156,1.5,3.0,41,0.00,,,0.00,VWS V14.01,2013-04-21 01:27:00,
2013-04-20 20:32:00,61.3,37.4,30.14,SSE,163,0.0,4.0,41,0.00,,,0.00,VWS V14.01,2013-04-21 01:32:00,
2013-04-20 20:37:00,61.1,37.9,30.14,SSE,158,0.0,4.0,42,0.00,,,0.00,VWS V14.01,2013-04-21 01:37:00,
2013-04-20 20:42:00,60.8,38.2,30.15,SSE,158,0.0,4.0,43,0.00,,,0.00,VWS V14.01,2013-04-21 01:42:00,
2013-04-20 20:46:00,60.5,37.9,30.15,SSE,160,1.5,4.0,43,0.00,,,0.00,VWS V14.01,2013-04-21 01:46:00,
2013-04-20 20:51:00,60.3,37.7,30.15,SSE,155,1.5,4.0,43,0.00,,,0.00,VWS V14.01,2013-04-21 01:51:00,
2013-04-20 20:56:00,60.3,37.7,30.16,SE,136,0.0,4.0,43,0.00,,,0.00,VWS V14.01,2013-04-21 01:56:00,
2013-04-20 21:00:00,62.2,36.3,30.13,South,183,3.0,9.0,38,0.00,,,0.00,VWS V15.00,2013-04-21 02:00:00,
2013-04-20 21:01:00,60.2,37.6,30.16,South,181,1.5,4.0,43,0.00,,,0.00,VWS V14.01,2013-04-21 02:01:00,
2013-04-20 21:06:00,60.2,37.6,30.16,SE,139,1.5,4.0,43,0.00,,,0.00,VWS V14.01,2013-04-21 02:06:00,
2013-04-20 21:11:00,60.2,38.2,30.17,SSE,163,1.5,4.0,44,0.00,,,0.00,VWS V14.01,2013-04-21 02:11:00,
2013-04-20 21:16:00,60.0,38.0,30.17,ESE,115,1.5,4.0,44,0.00,,,0.00,VWS V14.01,2013-04-21 02:16:00,
2013-04-20 21:21:00,59.8,37.9,30.17,SE,134,1.5,4.0,44,0.00,,,0.00,VWS V14.01,2013-04-21 02:21:00,
2013-04-20 21:26:00,59.6,38.2,30.17,South,172,3.0,4.0,45,0.00,,,0.00,VWS V14.01,2013-04-21 02:26:00,
2013-04-20 21:31:00,59.4,38.1,30.17,East,82,0.0,4.0,45,0.00,,,0.00,VWS V14.01,2013-04-21 02:31:00,
2013-04-20 21:36:00,59.3,38.5,30.17,SE,141,0.0,4.0,46,0.00,,,0.00,VWS V14.01,2013-04-21 02:36:00,
2013-04-20 21:41:00,59.1,38.4,30.18,SSE,155,1.5,4.0,46,0.00,,,0.00,VWS V14.01,2013-04-21 02:41:00,
2013-04-20 21:46:00,59.0,38.3,30.18,South,172,0.0,4.0,46,0.00,,,0.00,VWS V14.01,2013-04-21 02:46:00,
2013-04-20 21:51:00,58.8,38.1,30.18,SSE,156,0.0,4.0,46,0.00,,,0.00,VWS V14.01,2013-04-21 02:51:00,
2013-04-20 21:56:00,58.6,38.5,30.18,SSE,150,1.5,4.0,47,0.00,,,0.00,VWS V14.01,2013-04-21 02:56:00,
2013-04-20 22:00:00,58.5,38.4,30.18,SSE,147,0.0,4.0,47,0.00,,,0.00,VWS V14.01,2013-04-21 03:00:00,
2013-04-20 22:01:00,58.5,38.4,30.18,South,190,1.5,3.0,47,0.00,,,0.00,VWS V14.01,2013-04-21 03:01:00,
2013-04-20 22:06:00,58.4,38.8,30.19,SSE,162,0.0,3.0,48,0.00,,,0.00,VWS V14.01,2013-04-21 03:06:00,
2013-04-20 22:11:00,58.2,38.1,30.19,South,177,3.0,3.0,47,0.00,,,0.00,VWS V14.01,2013-04-21 03:11:00,
2013-04-20 22:16:00,58.3,38.7,30.19,East,95,1.5,3.0,48,0.00,,,0.00,VWS V14.01,2013-04-21 03:16:00,
2013-04-20 22:21:00,58.3,38.7,30.19,SSW,203,1.5,4.0,48,0.00,,,0.00,VWS V14.01,2013-04-21 03:21:00,
2013-04-20 22:26:00,58.2,38.6,30.19,SSE,166,3.0,4.0,48,0.00,,,0.00,VWS V14.01,2013-04-21 03:26:00,
2013-04-20 22:31:00,58.2,38.6,30.19,SE,125,1.5,4.0,48,0.00,,,0.00,VWS V14.01,2013-04-21 03:31:00,
2013-04-20 22:36:00,58.0,39.0,30.19,SE,143,4.5,5.0,49,0.00,,,0.00,VWS V14.01,2013-04-21 03:36:00,
2013-04-20 22:41:00,57.9,38.9,30.19,SSE,167,1.5,5.0,49,0.00,,,0.00,VWS V14.01,2013-04-21 03:41:00,
2013-04-20 22:46:00,57.8,38.8,30.19,South,169,0.0,5.0,49,0.00,,,0.00,VWS V14.01,2013-04-21 03:46:00,
2013-04-20 22:51:00,57.5,38.5,30.19,SSE,150,3.0,5.0,49,0.00,,,0.00,VWS V14.01,2013-04-21 03:51:00,
2013-04-20 22:56:00,57.5,39.0,30.19,SSE,159,1.5,5.0,50,0.00,,,0.00,VWS V14.01,2013-04-21 03:56:00,
2013-04-20 23:00:00,58.5,38.4,30.18,SSE,147,0.0,4.0,47,0.00,,,0.00,VWS V15.00,2013-04-21 04:00:00,
2013-04-20 23:01:00,57.3,38.8,30.19,South,177,3.0,5.0,50,0.00,,,0.00,VWS V14.01,2013-04-21 04:01:00,
2013-04-20 23:06:00,57.1,39.2,30.19,East,97,0.0,5.0,51,0.00,,,0.00,VWS V14.01,2013-04-21 04:06:00,
2013-04-20 23:11:00,56.8,38.9,30.19,SSE,166,1.5,5.0,51,0.00,,,0.00,VWS V14.01,2013-04-21 04:11:00,
2013-04-20 23:16:00,56.6,39.2,30.19,SSE,160,1.5,5.0,52,0.00,,,0.00,VWS V14.01,2013-04-21 04:16:00,
2013-04-20 23:21:00,56.3,39.4,30.19,SE,136,1.5,5.0,53,0.00,,,0.00,VWS V14.01,2013-04-21 04:21:00,
2013-04-20 23:26:00,56.0,39.1,30.19,ESE,110,0.0,5.0,53,0.00,,,0.00,VWS V14.01,2013-04-21 04:26:00,
2013-04-20 23:31:00,55.7,39.3,30.19,SE,133,0.0,5.0,54,0.00,,,0.00,VWS V14.01,2013-04-21 04:31:00,
2013-04-20 23:36:00,55.5,39.1,30.19,East,101,0.0,5.0,54,0.00,,,0.00,VWS V14.01,2013-04-21 04:36:00,
2013-04-20 23:41:00,55.3,39.0,30.19,ESE,109,0.0,5.0,54,0.00,,,0.00,VWS V14.01,2013-04-21 04:41:00,
2013-04-20 23:46:00,55.2,38.9,30.19,ESE,114,0.0,5.0,54,0.00,,,0.00,VWS V14.01,2013-04-21 04:46:00,
2013-04-20 23:51:00,55.0,39.2,30.19,SE,142,0.0,5.0,55,0.00,,,0.00,VWS V14.01,2013-04-21 04:51:00,
2013-04-20 23:56:00,54.9,39.0,30.19,SE,132,0.0,5.0,55,0.00,,,0.00,VWS V14.01,2013-04-21 04:56:00,